Weather observations for the past three days for
Ames, Ames Municipal Airport
Imperial (Metric)
Date Time (cdt) Wind (mph) Vis. (mi.) Weather Sky Cond. Temperature (ºF) Relative Humidity Wind Chill (°F) Heat Index (°F) Pressure Precipitation (in)
Air Dwpt 6 hour altimeter (in) sea level (mb) 1 hr 3 hr 6 hr
Max. Min.
17 16:53 N 12 G 22 10.00 A Few Clouds FEW060 78.1 54 43% 79 30.13 1019.3
17 15:53 N 12 G 21 10.00 Partly Cloudy SCT055 SCT070 75.9 54 47% 78 30.12 1019.4
17 14:53 NW 14 G 22 10.00 Mostly Cloudy BKN055 BKN070 79 57 47% 80 30.13 1019.4
17 13:53 N 12 10.00 Mostly Cloudy SCT049 BKN060 75.9 57.9 54% 78 30.13 1019.5
17 12:53 N 10 10.00 Partly Cloudy SCT055 77 57 78.1 66 50% 79 30.14 1019.7
17 11:53 Vrbl 6 10.00 A Few Clouds FEW044 75.9 57.9 54% 78 30.14 1019.7
17 10:53 N 8 10.00 Fair CLR 75 59 58% 77 30.12 1019.2
17 09:53 N 7 10.00 Fair CLR 73.9 60.1 62% 30.11 1018.8
17 08:53 N 7 10.00 Fair CLR 71.1 59 66% 30.1 1018.4
17 07:53 N 7 10.00 Fair CLR 68 61 78% 30.09 1018.0
17 06:53 N 6 10.00 Fair CLR 66 61 66 61 84% 30.06 1017.0
17 05:53 NW 5 10.00 Fair CLR 63 59 87% 30.04 1016.5
17 04:53 NW 3 10.00 A Few Clouds FEW080 63 60.1 90% 30.02 1015.8
17 03:53 Calm 10.00 A Few Clouds FEW070 62.1 60.1 93% 29.99 1015.1
17 02:53 SW 3 10.00 A Few Clouds FEW110 63 61 93% 29.99 1014.8
17 01:53 S 3 10.00 Fair CLR 63 61 93% 29.99 1014.7
17 00:53 Calm 10.00 Fair CLR 66 63 78.1 64.9 90% 29.97 1014.3
16 23:53 W 6 10.00 Fair CLR 68 64 87% 29.96 1013.8
16 22:53 NW 7 10.00 Fair CLR 70 64 82% 29.96 1013.6
16 21:53 W 5 10.00 Fair CLR 70 66 87% 29.95 1013.3
16 20:53 W 5 10.00 Fair CLR 72 66 82% 29.95 1013.3
16 19:53 W 5 10.00 Fair CLR 75.9 64.9 69% 78 29.93 1012.7
16 18:53 SW 5 10.00 Partly Cloudy SCT110 75.9 64.9 80.1 73 69% 78 29.93 1012.6
16 17:53 Calm 10.00 Partly Cloudy SCT120 79 62.1 56% 80 29.94 1012.8
16 16:53 Calm 10.00 Fair CLR 78.1 64 62% 80 29.94 1012.9
16 15:53 NW 5 10.00 Light Rain BKN110 73.9 64 71% 29.96 1013.6
16 14:53 NW 8 10.00 Partly Cloudy FEW080 SCT100 75.9 64 67% 78 29.95 1013.1
16 13:53 W 5 10.00 Fair CLR 75 64.9 71% 77 29.94 1012.8
16 12:53 NW 6 10.00 Fair CLR 73.9 63 77 69.1 69% 29.91 1012.0
16 11:53 NW 6 10.00 Fair CLR 75 64.9 71% 77 29.92 1012.3
16 10:53 N 10 10.00 Fair CLR 75 63 66% 77 29.9 1011.5
16 09:53 N 7 10.00 Fair CLR 77 63 62% 79 29.91 1011.7
16 08:53 N 12 10.00 Fair CLR 73.9 63 69% 29.87 1010.7
16 07:53 N 9 10.00 Fair CLR 71.1 63 76% 29.87 1010.6
16 06:53 N 8 10.00 Fair CLR 69.1 64.9 73.9 69.1 87% 29.86 1010.1
16 05:53 N 8 10.00 Fair CLR 69.1 64.9 87% 29.84 1009.4
16 04:53 N 9 10.00 Fair CLR 70 66 87% 29.83 1009.0
16 03:53 N 10 10.00 Fair CLR 72 68 87% 29.81 1008.4
16 02:53 N 8 10.00 Fair CLR 73 69.1 87% 29.81 1008.3
16 01:53 N 10 10.00 Fair CLR 73.9 70 88% 29.81 1008.1
16 00:53 NW 6 9.00 Fair CLR 73 70 75 72 90% 29.81 1008.3
15 23:53 N 3 10.00 Partly Cloudy FEW027 SCT039 73 70 90% 29.81 1008.2
15 22:53 Calm 10.00 Fair CLR 72 70 94% 29.8 1007.9
15 21:53 SW 3 10.00 Fair CLR 72 70 94% 29.78 1007.3
15 20:53 Calm 9.00 Fair CLR 73 70 90% 29.75 1006.2
15 19:53 Calm 10.00 Fair CLR 73.9 71.1 91% 29.74 1006.1
15 18:53 SW 3 10.00 Fair CLR 72 70 91.9 72 94% 29.72 1005.4 0.01 0.29
15 17:53 Vrbl 7 1.25 Thunderstorm Rain Fog/Mist FEW024 BKN090 OVC110 73 69.1 87% 29.75 1006.6 0.22
15 16:53 W 6 10.00 Thunderstorm in Vicinity FEW031 SCT038 BKN065 88 79 75% 103 29.66 1003.4
15 15:53 SW 5 10.00 Thunderstorm in Vicinity Light Rain SCT036 SCT055 BKN070 89.1 81 77% 108 29.7 1004.4 0.06 0.06
15 14:53 S 6 10.00 Mostly Cloudy BKN035 91.9 79 66% 109 29.73 1005.4
15 13:53 S 8 10.00 Fair CLR 91.9 77 62% 106 29.74 1005.9
15 12:53 SE 5 10.00 Fair CLR 91 78.1 91 71.1 66% 106 29.76 1006.4
15 11:53 SE 6 10.00 A Few Clouds FEW022 89.1 79 72% 105 29.79 1007.6
15 10:53 E 5 10.00 A Few Clouds FEW019 88 78.1 73% 102 29.81 1008.3
15 09:53 SE 9 10.00 Fair CLR 84.9 77 77% 95 29.79 1007.3
15 08:53 S 7 10.00 Fair CLR 82 73.9 77% 88 29.81 1008.2
15 07:53 SE 8 7.00 Fair CLR 75.9 72 88% 76 29.81 1008.4
15 06:53 Calm 0.75 Fog/Mist CLR 71.1 69.1 73.9 69.1 94% 29.82 1008.6
15 05:53 Calm 3.00 Fog/Mist CLR 70 68 93% 29.82 1008.8
15 04:53 Calm 0.50 Fog VV009 70 68 93% 29.84 1009.4
15 03:53 Calm 5.00 Fog/Mist CLR 71.1 69.1 94% 29.86 1010.0
15 02:53 Calm 4.00 Fog/Mist CLR 71.1 69.1 94% 29.87 1010.5
15 01:53 Calm 8.00 Fair CLR 72 70 94% 29.88 1010.6
15 00:53 Calm 10.00 Fair CLR 73.9 71.1 89.1 73 91% 29.88 1010.6
14 23:53 SW 3 10.00 Fair CLR 73.9 70 88% 29.87 1010.4
14 22:53 Calm 10.00 Fair CLR 75 70 84% 75 29.87 1010.4
14 21:53 Calm 10.00 Fair CLR 80.1 72 76% 84 29.87 1010.3
14 20:53 W 6 10.00 Fair CLR 82.9 72 70% 88 29.86 1010.1
14 19:53 W 7 10.00 Fair CLR 86 72 63% 92 29.85 1009.7
14 18:53 NW 12 10.00 Fair CLR 89.1 72 91.9 87.1 57% 96 29.85 1009.5
Date Time (cdt) Wind (mph) Vis. (mi.) Weather Sky Cond. Air Dwpt Max. Min. Relative Humidity Wind Chill (°F) Heat Index (°F) altimeter (in) sea level (mb) 1 hr 3 hr 6 hr
6 hour
Temperature (ºF) Pressure Precipitation (in)